Hourly Weather Chamba

Today, 12 June, Saturday

Time Temperature Precipitation Wind Pressure Humidity
00:00 +26°C° 0.4 mm 2 mps 658 mmHg 69%
01:00 +25°C° 0.4 mm 2 mps 658 mmHg 70%
02:00 +25°C° 0.4 mm 2 mps 658 mmHg 71%
03:00 +25°C° 0.7 mm 2 mps 658 mmHg 70%
04:00 +24°C° 0.7 mm 2 mps 658 mmHg 70%
05:00 +24°C° 0 mm 2 mps 658 mmHg 71%
06:00 +26°C° 0.4 mm 2 mps 658 mmHg 64%
07:00 +28°C° 0.4 mm 1 mps 659 mmHg 56%
08:00 +30°C° 0.4 mm 1 mps 659 mmHg 49%
09:00 +31°C° 0.3 mm 2 mps 660 mmHg 46%
10:00 +32°C° 0.3 mm 2 mps 660 mmHg 43%
11:00 +34°C° 0.3 mm 3 mps 660 mmHg 41%
12:00 +35°C° 0.6 mm 3 mps 659 mmHg 41%
13:00 +35°C° 0.6 mm 3 mps 659 mmHg 41%
14:00 +35°C° 0.6 mm 3 mps 659 mmHg 41%
15:00 +34°C° 0.8 mm 3 mps 658 mmHg 46%
16:00 +31°C° 0.8 mm 3 mps 657 mmHg 50%
17:00 +30°C° 0.8 mm 3 mps 657 mmHg 55%
18:00 +29°C° 0.5 mm 3 mps 657 mmHg 56%
19:00 +28°C° 0.5 mm 3 mps 657 mmHg 57%
20:00 +27°C° 0.5 mm 3 mps 658 mmHg 58%
21:00 +26°C° 0.6 mm 3 mps 658 mmHg 61%
22:00 +25°C° 0.6 mm 3 mps 658 mmHg 64%
23:00 +24°C° 0.6 mm 3 mps 659 mmHg 68%

Tomorrow, 13 June, Sunday

Time Temperature Precipitation Wind Pressure Humidity
00:00 +24°C° 0 mm 3 mps 658 mmHg 66%
01:00 +24°C° 0 mm 3 mps 658 mmHg 65%
02:00 +24°C° 0 mm 3 mps 658 mmHg 64%
03:00 +24°C° 0.2 mm 3 mps 658 mmHg 64%
04:00 +22°C° 0.2 mm 3 mps 658 mmHg 64%
05:00 +22°C° 0.2 mm 3 mps 658 mmHg 64%
06:00 +25°C° 0.2 mm 2 mps 659 mmHg 60%
07:00 +27°C° 0.2 mm 2 mps 659 mmHg 57%
08:00 +28°C° 0.2 mm 2 mps 660 mmHg 53%
09:00 +29°C° 0.3 mm 2 mps 660 mmHg 52%
10:00 +30°C° 0.3 mm 2 mps 660 mmHg 52%
11:00 +30°C° 0.3 mm 3 mps 660 mmHg 51%
12:00 +31°C° 0.3 mm 3 mps 660 mmHg 50%
13:00 +33°C° 0.3 mm 3 mps 659 mmHg 48%
14:00 +33°C° 0.3 mm 3 mps 659 mmHg 47%
15:00 +33°C° 0.9 mm 3 mps 658 mmHg 49%
16:00 +31°C° 0.9 mm 2 mps 658 mmHg 52%
17:00 +30°C° 0.9 mm 1 mps 657 mmHg 55%
18:00 +29°C° 1.1 mm 1 mps 658 mmHg 61%
19:00 +27°C° 1.1 mm 1 mps 658 mmHg 66%
20:00 +26°C° 1.1 mm 1 mps 658 mmHg 72%
21:00 +25°C° 0.5 mm 1 mps 658 mmHg 72%
22:00 +25°C° 0.5 mm 2 mps 658 mmHg 71%
23:00 +24°C° 0.5 mm 2 mps 658 mmHg 71%

Day after tomorrow, 14 June, Monday

Time Temperature Precipitation Wind Pressure Humidity
00:00 +24°C° 0 mm 2 mps 657 mmHg 70%
01:00 +24°C° 0 mm 2 mps 657 mmHg 69%
02:00 +24°C° 0 mm 3 mps 657 mmHg 68%
03:00 +24°C° 0.2 mm 2 mps 657 mmHg 69%
04:00 +23°C° 0.2 mm 2 mps 657 mmHg 70%
05:00 +23°C° 0.2 mm 2 mps 657 mmHg 71%
06:00 +24°C° 0.6 mm 2 mps 658 mmHg 67%
07:00 +26°C° 0.6 mm 1 mps 659 mmHg 63%
08:00 +27°C° 0.6 mm 1 mps 659 mmHg 59%
09:00 +28°C° 0.5 mm 2 mps 659 mmHg 56%
10:00 +29°C° 0.5 mm 2 mps 659 mmHg 53%
11:00 +30°C° 0.5 mm 3 mps 659 mmHg 50%
12:00 +31°C° 0.7 mm 3 mps 659 mmHg 48%
13:00 +33°C° 0.7 mm 3 mps 658 mmHg 45%
14:00 +33°C° 0.7 mm 3 mps 658 mmHg 43%
15:00 +30°C° 1.9 mm 3 mps 657 mmHg 53%
16:00 +27°C° 1.9 mm 3 mps 657 mmHg 63%
17:00 +25°C° 1.9 mm 3 mps 656 mmHg 73%
18:00 +24°C° 3.6 mm 3 mps 656 mmHg 75%
19:00 +22°C° 3.6 mm 3 mps 657 mmHg 76%
20:00 +21°C° 3.6 mm 3 mps 657 mmHg 78%
21:00 +21°C° 0.8 mm 3 mps 657 mmHg 77%
22:00 +21°C° 0.8 mm 3 mps 656 mmHg 76%
23:00 +21°C° 0.8 mm 3 mps 656 mmHg 75%

15 June, Tuesday

Time Temperature Precipitation Wind Pressure Humidity
00:00 +21°C° 0 mm 3 mps 656 mmHg 73%
01:00 +21°C° 0 mm 3 mps 655 mmHg 71%
02:00 +21°C° 0 mm 3 mps 655 mmHg 69%
03:00 +21°C° 0.1 mm 3 mps 655 mmHg 68%
04:00 +21°C° 0.1 mm 3 mps 655 mmHg 67%
05:00 +20°C° 0.1 mm 3 mps 655 mmHg 67%
06:00 +24°C° 0.1 mm 3 mps 656 mmHg 60%
07:00 +26°C° 0.1 mm 2 mps 656 mmHg 53%
08:00 +28°C° 0.1 mm 1 mps 657 mmHg 47%
09:00 +29°C° 0.1 mm 2 mps 657 mmHg 45%
10:00 +30°C° 0.1 mm 2 mps 657 mmHg 43%
11:00 +31°C° 0.1 mm 3 mps 657 mmHg 41%
12:00 +31°C° 0.5 mm 3 mps 656 mmHg 42%
13:00 +31°C° 0.5 mm 2 mps 656 mmHg 43%
14:00 +31°C° 0.5 mm 2 mps 655 mmHg 45%
15:00 +29°C° 0.5 mm 2 mps 655 mmHg 55%
16:00 +27°C° 0.5 mm 2 mps 654 mmHg 65%
17:00 +24°C° 0.5 mm 2 mps 654 mmHg 75%
18:00 +24°C° 0.8 mm 2 mps 654 mmHg 79%
19:00 +23°C° 0.8 mm 2 mps 655 mmHg 82%
20:00 +21°C° 0.8 mm 2 mps 655 mmHg 85%
21:00 +21°C° 1.3 mm 2 mps 655 mmHg 84%
22:00 +21°C° 1.3 mm 2 mps 655 mmHg 84%
23:00 +21°C° 1.3 mm 3 mps 656 mmHg 83%

16 June, Wednesday

Time Temperature Precipitation Wind Pressure Humidity
00:00 +21°C° 0.4 mm 3 mps 656 mmHg 81%
01:00 +21°C° 0.4 mm 2 mps 656 mmHg 80%
02:00 +21°C° 0.4 mm 2 mps 656 mmHg 78%
03:00 +20°C° 2.8 mm 2 mps 656 mmHg 81%
04:00 +20°C° 2.8 mm 3 mps 656 mmHg 84%
05:00 +19°C° 2.8 mm 3 mps 656 mmHg 87%
06:00 +19°C° 3.7 mm 3 mps 657 mmHg 85%
07:00 +20°C° 3.7 mm 3 mps 657 mmHg 83%
08:00 +20°C° 3.7 mm 3 mps 657 mmHg 80%
09:00 +22°C° 0.6 mm 3 mps 658 mmHg 73%
10:00 +24°C° 0.6 mm 2 mps 658 mmHg 65%
11:00 +26°C° 0.6 mm 2 mps 658 mmHg 57%
12:00 +27°C° 0.1 mm 2 mps 658 mmHg 55%
13:00 +28°C° 0.1 mm 2 mps 658 mmHg 52%
14:00 +30°C° 0.1 mm 2 mps 658 mmHg 50%
15:00 +29°C° 0.2 mm 2 mps 658 mmHg 51%
16:00 +29°C° 0.2 mm 2 mps 658 mmHg 52%
17:00 +29°C° 0.2 mm 1 mps 658 mmHg 53%
18:00 +27°C° 0 mm 2 mps 658 mmHg 57%
19:00 +25°C° 0 mm 3 mps 658 mmHg 61%
20:00 +22°C° 0 mm 3 mps 658 mmHg 65%
21:00 +22°C° 0 mm 4 mps 658 mmHg 62%
22:00 +21°C° 0 mm 4 mps 658 mmHg 60%
23:00 +21°C° 0 mm 4 mps 658 mmHg 57%

17 June, Thursday

Time Temperature Precipitation Wind Pressure Humidity
00:00 +20°C° 0 mm 4 mps 658 mmHg 56%
01:00 +20°C° 0 mm 4 mps 658 mmHg 55%
02:00 +20°C° 0 mm 5 mps 658 mmHg 54%
03:00 +19°C° 0 mm 5 mps 658 mmHg 53%
04:00 +19°C° 0 mm 5 mps 658 mmHg 52%
05:00 +19°C° 0 mm 5 mps 657 mmHg 52%
06:00 +22°C° 0 mm 4 mps 658 mmHg 47%
07:00 +26°C° 0 mm 2 mps 659 mmHg 42%
08:00 +28°C° 0 mm 1 mps 659 mmHg 37%
09:00 +30°C° 0 mm 2 mps 659 mmHg 37%
10:00 +31°C° 0 mm 2 mps 659 mmHg 36%
11:00 +33°C° 0 mm 3 mps 659 mmHg 35%
12:00 +33°C° 0.1 mm 3 mps 659 mmHg 36%
13:00 +32°C° 0.1 mm 2 mps 659 mmHg 36%
14:00 +32°C° 0.1 mm 2 mps 659 mmHg 36%
15:00 +31°C° 0.4 mm 3 mps 659 mmHg 41%
16:00 +29°C° 0.4 mm 3 mps 659 mmHg 46%
17:00 +28°C° 0.4 mm 3 mps 659 mmHg 51%
18:00 +27°C° 0 mm 3 mps 659 mmHg 53%
19:00 +25°C° 0 mm 4 mps 659 mmHg 55%
20:00 +23°C° 0 mm 4 mps 659 mmHg 56%
21:00 +23°C° 0 mm 4 mps 659 mmHg 55%
22:00 +22°C° 0 mm 4 mps 659 mmHg 54%
23:00 +22°C° 0 mm 4 mps 660 mmHg 53%
Show more

We Need Your Consent

Meteoprog and our Service Providers may store and access personal data such as cookies, device identifiers or other similar technologies on your device and process such data to personalise content and ads, as well as provide social media features and to analyse the traffic.

  • Store and/or access information on your device

    Cookies, device identifiers or other information can be stored or accessed on your device for the purposes indicated above.

  • Personalised ads and content, ad and content measurement, audience insights, and products development

    Ads and content can be personalised based on a profile. More data can be added to better personalise ads and content. Ad and content performance can be measured. Insights about the audience who saw the ads and content can be derived. Such data can be used to develop or improve user’s experience, systems and software.

By clicking ‘I Agree’ you will allow the use of indicated cookies, device identifiers, web beacons or other similar technologies. Your settings can be changed in the browser on your device.

For certain purposes, legitimate interests may be relied on, rather than consent. You can read more about this in our Privacy and Cookie Policy.